ASTEX 1

Last updated on Wed Sep 17 2025 00:02:14 GMT+0000 (Coordinated Universal Time)

1 05560U 71089A 25259.57872317 .00000376 00000+0 96301-4 0 9992 2 05560 92.7123 95.4464 0014132 319.4174 40.5977 14.50479879837064
UTC large
Height (km)
Speed (km/s)
/
Latitude / Longitude
Inclination (degrees)
Orbital Period (minutes)
Azimuth
Elevation
Range (km)
Doppler Factor

Next 0 passes for location: London (51.5072 / 0.1276)

Sorry there are no passes over London.